TimePDT,TemperatureF,Dew PointF,Humidity,Sea Level PressureIn,VisibilityMPH,Wind Direction,Wind SpeedMPH,Gust SpeedMPH,PrecipitationIn,Events,Conditions,WindDirDegrees,DateUTC
12:15 AM,64.4,8.6,11,29.88,10.0,NNW,4.6,-,N/A,,Clear,340,2013-03-18 07:15:00
12:35 AM,66.2,5.0,9,29.88,10.0,NW,10.4,-,N/A,,Clear,310,2013-03-18 07:35:00
12:55 AM,66.2,3.2,8,29.89,10.0,Calm,Calm,-,N/A,,Clear,0,2013-03-18 07:55:00
1:15 AM,66.2,5.0,9,29.90,10.0,Calm,Calm,-,N/A,,Clear,0,2013-03-18 08:15:00
1:35 AM,64.4,5.0,10,29.90,10.0,SW,6.9,-,N/A,,Clear,220,2013-03-18 08:35:00
1:55 AM,64.4,5.0,10,29.90,10.0,West,4.6,-,N/A,,Clear,260,2013-03-18 08:55:00
2:15 AM,62.6,5.0,10,29.90,10.0,NNW,8.1,-,N/A,,Clear,330,2013-03-18 09:15:00
2:35 AM,64.4,1.4,8,29.90,10.0,NW,8.1,-,N/A,,Clear,320,2013-03-18 09:35:00
2:55 AM,62.6,6.8,11,29.91,10.0,NNW,4.6,-,N/A,,Clear,340,2013-03-18 09:55:00
3:15 AM,64.4,3.2,9,29.90,10.0,NNW,10.4,-,N/A,,Clear,330,2013-03-18 10:15:00
3:35 AM,64.4,-0.4,7,29.90,10.0,NNW,13.8,-,N/A,,Clear,340,2013-03-18 10:35:00
3:55 AM,64.4,3.2,9,29.89,10.0,North,12.7,-,N/A,,Clear,360,2013-03-18 10:55:00
4:15 AM,62.6,5.0,10,29.90,10.0,North,5.8,-,N/A,,Clear,10,2013-03-18 11:15:00
4:35 AM,64.4,1.4,8,29.91,10.0,North,6.9,-,N/A,,Clear,360,2013-03-18 11:35:00
4:55 AM,62.6,1.4,9,29.92,10.0,North,8.1,-,N/A,,Clear,350,2013-03-18 11:55:00
5:15 AM,59.0,8.6,14,29.92,10.0,North,6.9,-,N/A,,Clear,10,2013-03-18 12:15:00
5:55 AM,57.2,8.6,14,29.94,10.0,North,6.9,-,N/A,,Clear,360,2013-03-18 12:55:00
6:15 AM,57.2,6.8,13,29.95,10.0,North,6.9,-,N/A,,Clear,10,2013-03-18 13:15:00
6:35 AM,57.2,10.4,16,29.96,10.0,Calm,Calm,-,N/A,,Clear,0,2013-03-18 13:35:00
6:55 AM,57.2,6.8,13,29.97,10.0,Calm,Calm,-,N/A,,Clear,0,2013-03-18 13:55:00
7:15 AM,55.4,10.4,17,29.98,10.0,Calm,Calm,-,N/A,,Clear,0,2013-03-18 14:15:00
7:35 AM,62.6,5.0,10,29.99,10.0,North,12.7,-,N/A,,Clear,360,2013-03-18 14:35:00
7:55 AM,62.6,5.0,10,30.00,10.0,North,12.7,-,N/A,,Clear,350,2013-03-18 14:55:00
8:35 AM,62.6,10.4,13,30.02,10.0,Calm,Calm,-,N/A,,Clear,0,2013-03-18 15:35:00
8:55 AM,66.2,6.8,10,30.02,10.0,NNW,10.4,-,N/A,,Clear,340,2013-03-18 15:55:00
9:15 AM,66.2,6.8,10,30.03,10.0,NNW,11.5,-,N/A,,Clear,340,2013-03-18 16:15:00
9:35 AM,68.0,6.8,9,30.04,10.0,North,5.8,-,N/A,,Clear,350,2013-03-18 16:35:00
9:55 AM,68.0,5.0,8,30.04,10.0,NNE,6.9,-,N/A,,Clear,30,2013-03-18 16:55:00
10:15 AM,68.0,6.8,9,30.04,10.0,NNE,10.4,-,N/A,,Clear,30,2013-03-18 17:15:00
10:35 AM,69.8,6.8,9,30.04,10.0,NNE,9.2,-,N/A,,Clear,30,2013-03-18 17:35:00
10:55 AM,69.8,5.0,8,30.05,10.0,NNE,10.4,16.1,N/A,,Clear,30,2013-03-18 17:55:00
11:15 AM,71.6,5.0,7,30.04,10.0,NE,11.5,-,N/A,,Clear,50,2013-03-18 18:15:00
11:35 AM,71.6,5.0,7,30.04,10.0,NE,12.7,16.1,N/A,,Clear,50,2013-03-18 18:35:00
11:55 AM,71.6,6.8,8,30.04,10.0,NE,11.5,-,N/A,,Clear,50,2013-03-18 18:55:00
12:15 PM,71.6,6.8,8,30.03,10.0,NE,10.4,-,N/A,,Clear,50,2013-03-18 19:15:00
12:35 PM,71.6,6.8,8,30.03,10.0,NE,11.5,-,N/A,,Clear,40,2013-03-18 19:35:00
12:55 PM,73.4,6.8,8,30.02,10.0,NE,5.8,-,N/A,,Clear,50,2013-03-18 19:55:00
1:15 PM,71.6,6.8,8,30.01,10.0,East,6.9,-,N/A,,Clear,100,2013-03-18 20:15:00
1:35 PM,73.4,6.8,8,30.00,10.0,Calm,Calm,-,N/A,,Clear,0,2013-03-18 20:35:00
1:55 PM,71.6,6.8,8,29.99,10.0,Calm,Calm,-,N/A,,Clear,0,2013-03-18 20:55:00
2:15 PM,73.4,6.8,8,29.98,10.0,NE,5.8,-,N/A,Thunderstorm,Clear,40,2013-03-18 21:15:00
2:35 PM,73.4,6.8,8,29.97,10.0,Calm,Calm,-,N/A,,Clear,0,2013-03-18 21:35:00
2:55 PM,73.4,6.8,8,29.97,10.0,North,6.9,-,N/A,,Clear,10,2013-03-18 21:55:00
3:15 PM,73.4,6.8,8,29.96,10.0,Calm,Calm,-,N/A,,Clear,0,2013-03-18 22:15:00
3:35 PM,75.2,5.0,7,29.96,10.0,NNW,4.6,-,N/A,,Clear,340,2013-03-18 22:35:00
3:55 PM,75.2,6.8,7,29.95,10.0,Calm,Calm,-,N/A,,Clear,0,2013-03-18 22:55:00
4:15 PM,75.2,6.8,7,29.94,10.0,ENE,3.5,-,N/A,,Clear,70,2013-03-18 23:15:00
4:35 PM,75.2,6.8,7,29.94,10.0,Calm,Calm,-,N/A,Thunderstorm,Clear,0,2013-03-18 23:35:00
4:55 PM,75.2,6.8,7,29.94,10.0,Calm,Calm,-,N/A,,Clear,0,2013-03-18 23:55:00
5:15 PM,75.2,6.8,7,29.93,10.0,Calm,Calm,-,N/A,,Clear,0,2013-03-19 00:15:00
5:35 PM,73.4,6.8,8,29.93,10.0,Calm,Calm,-,N/A,,Clear,0,2013-03-19 00:35:00
5:55 PM,73.4,8.6,8,29.93,10.0,ENE,4.6,-,N/A,,Clear,60,2013-03-19 00:55:00
6:15 PM,73.4,6.8,8,29.93,10.0,Calm,Calm,-,N/A,,Clear,0,2013-03-19 01:15:00
6:35 PM,71.6,10.4,9,29.93,10.0,Calm,Calm,-,N/A,,Clear,0,2013-03-19 01:35:00
6:55 PM,68.0,14.0,12,29.93,10.0,NE,3.5,-,N/A,,Clear,50,2013-03-19 01:55:00
7:15 PM,68.0,14.0,12,29.93,10.0,NE,3.5,-,N/A,,Clear,40,2013-03-19 02:15:00
7:35 PM,66.2,14.0,13,29.93,10.0,ENE,3.5,-,N/A,Thunderstorm,Clear,60,2013-03-19 02:35:00
7:55 PM,64.4,19.4,18,29.93,10.0,ENE,3.5,-,N/A,,Clear,60,2013-03-19 02:55:00
8:15 PM,64.4,19.4,18,29.93,10.0,Calm,Calm,-,N/A,,Clear,0,2013-03-19 03:15:00
8:55 PM,62.6,26.6,26,29.94,10.0,Calm,Calm,-,N/A,,Clear,0,2013-03-19 03:55:00
9:15 PM,60.8,26.6,27,29.94,10.0,Calm,Calm,-,N/A,,Clear,0,2013-03-19 04:15:00
9:35 PM,60.8,26.6,27,29.94,10.0,Calm,Calm,-,N/A,Thunderstorm,Clear,0,2013-03-19 04:35:00
9:55 PM,60.8,28.4,29,29.94,10.0,Calm,Calm,-,N/A,,Clear,0,2013-03-19 04:55:00
10:15 PM,60.8,21.2,22,29.94,10.0,Calm,Calm,-,N/A,,Clear,0,2013-03-19 05:15:00
10:35 PM,60.8,19.4,20,29.94,10.0,Calm,Calm,-,N/A,,Clear,0,2013-03-19 05:35:00
10:55 PM,64.4,17.6,16,29.94,10.0,SE,3.5,-,N/A,,Clear,130,2013-03-19 05:55:00
11:15 PM,64.4,14.0,14,29.94,10.0,Calm,Calm,-,N/A,Thunderstorm,Clear,0,2013-03-19 06:15:00
11:35 PM,62.6,23.0,22,29.93,10.0,Calm,Calm,-,N/A,,Clear,0,2013-03-19 06:35:00
11:55 PM,60.8,19.4,20,29.93,10.0,Calm,Calm,-,N/A,,Clear,0,2013-03-19 06:55:00